| time (UTC) | temp F | wind direction | speed knots | gust knots | rain 1hr in | rain 24hr in | rain mn in | humidity % | barometer mb |
| 20260509201148 | 88 | 215 | 1.7 | 7.8 | 0.00 | 0.00 | 0.00 | 62 | 1008.3 |
| 20260509200148 | 88 | 215 | 0.9 | 4.3 | 0.00 | 0.00 | 0.00 | 61 | 1008.3 |
| 20260509195223 | 88 | 155 | 0.9 | 7.8 | 0.00 | 0.00 | 0.00 | 61 | 1008.5 |
| 20260509194200 | 87 | 250 | 3.5 | 7.8 | 0.00 | 0.00 | 0.00 | 63 | 1008.6 |
| 20260509193128 | 86 | 225 | 3.5 | 7.0 | 0.00 | 0.00 | 0.00 | 65 | 1008.8 |
| 20260509192208 | 85 | 36 | 1.7 | 7.0 | 0.00 | 0.00 | 0.00 | 66 | 1008.9 |
| 20260509191237 | 87 | 153 | 2.6 | 6.1 | 0.00 | 0.00 | 0.00 | 64 | 1008.9 |
| 20260509190206 | 87 | 167 | 3.5 | 7.0 | 0.00 | 0.00 | 0.00 | 65 | 1009.0 |
| 20260509185144 | 87 | 254 | 0.9 | 6.1 | 0.00 | 0.00 | 0.00 | 64 | 1009.0 |
| 20260509184216 | 86 | 183 | 1.7 | 7.0 | 0.00 | 0.00 | 0.00 | 65 | 1009.1 |
| 20260509182150 | 85 | 248 | 1.7 | 5.2 | 0.00 | 0.00 | 0.00 | 70 | 1009.4 |
| 20260509181127 | 84 | 245 | 2.6 | 5.2 | 0.00 | 0.00 | 0.00 | 69 | 1009.5 |
| 20260509180140 | 84 | 226 | 1.7 | 7.0 | 0.00 | 0.00 | 0.00 | 71 | 1009.6 |
| 20260509175219 | 82 | 163 | 1.7 | 7.0 | 0.00 | 0.00 | 0.00 | 75 | 1009.8 |
| 20260509174140 | 82 | 229 | 3.5 | 9.6 | 0.00 | 0.00 | 0.00 | 76 | 1010.0 |
| 20260509173219 | 81 | 179 | 3.5 | 7.0 | 0.00 | 0.00 | 0.00 | 77 | 1010.0 |
| 20260509172221 | 82 | 172 | 2.6 | 8.7 | 0.00 | 0.00 | 0.00 | 76 | 1010.1 |
| 20260509170830 | 81 | 143 | 3.5 | 7.8 | 0.00 | 0.00 | 0.00 | 77 | 1009.9 |
| 20260509170142 | 82 | 229 | 2.6 | 6.1 | 0.00 | 0.00 | 0.00 | 77 | 1010.0 |
| 20260509165223 | 81 | 259 | 2.6 | 7.0 | 0.00 | 0.00 | 0.00 | 77 | 1010.1 |
| 20260509164150 | 80 | 249 | 2.6 | 7.8 | 0.00 | 0.00 | 0.00 | 79 | 1010.1 |
| 20260509163126 | 81 | 207 | 3.5 | 7.0 | 0.00 | 0.00 | 0.00 | 78 | 1010.0 |
| 20260509161200 | 79 | 223 | 0.9 | 3.5 | 0.00 | 0.00 | 0.00 | 81 | 1009.9 |
| 20260509160153 | 78 | 184 | 0.9 | 4.3 | 0.00 | 0.00 | 0.00 | 85 | 1009.9 |
| 20260509155218 | 77 | 146 | 1.7 | 5.2 | 0.00 | 0.00 | 0.00 | 87 | 1010.0 |
| 20260509154132 | 77 | 222 | 2.6 | 5.2 | 0.00 | 0.00 | 0.00 | 87 | 1009.8 |
| 20260509153212 | 76 | 232 | 2.6 | 5.2 | 0.00 | 0.00 | 0.00 | 91 | 1009.9 |
| 20260509152132 | 74 | 203 | 1.7 | 5.2 | 0.00 | 0.00 | 0.00 | 93 | 1009.9 |
| 20260509151211 | 74 | 188 | 0.9 | 4.3 | 0.00 | 0.00 | 0.00 | 95 | 1009.9 |
| 20260509150207 | 74 | 250 | 0.9 | 1.7 | 0.00 | 0.00 | 0.00 | 95 | 1010.1 |
| 20260509145137 | 74 | 250 | 0.0 | 2.6 | 0.00 | 0.00 | 0.00 | 95 | 1010.2 |
| 20260509144158 | 73 | 250 | 0.0 | 1.7 | 0.00 | 0.00 | 0.00 | 95 | 1010.3 |
| 20260509143218 | 73 | 250 | 0.9 | 1.7 | 0.00 | 0.00 | 0.00 | 94 | 1010.4 |
| 20260509142156 | 73 | 250 | 0.9 | 4.3 | 0.00 | 0.00 | 0.00 | 94 | 1010.4 |
| 20260509141214 | 73 | 241 | 1.7 | 3.5 | 0.00 | 0.00 | 0.00 | 94 | 1010.4 |
| 20260509140918 | 73 | 192 | 0.9 | 4.3 | 0.00 | 0.00 | 0.00 | 94 | 1010.3 |
| 20260509135159 | 73 | 195 | 1.7 | 4.3 | 0.00 | 0.00 | 0.00 | 94 | 1010.2 |
| 20260509134229 | 73 | 213 | 0.9 | 3.5 | 0.00 | 0.00 | 0.00 | 95 | 1010.2 |
| 20260509133143 | 73 | 215 | 0.9 | 3.5 | 0.00 | 0.00 | 0.00 | 96 | 1010.1 |
| 20260509132212 | 72 | 215 | 1.7 | 3.5 | 0.00 | 0.00 | 0.00 | 96 | 1010.1 |
| 20260509131151 | 72 | 217 | 1.7 | 4.3 | 0.00 | 0.00 | 0.00 | 96 | 1010.2 |
| 20260509130154 | 72 | 167 | 1.7 | 3.5 | 0.00 | 0.00 | 0.00 | 97 | 1010.2 |
| 20260509125232 | 72 | 155 | 1.7 | 4.3 | 0.00 | 0.00 | 0.00 | 97 | 1010.1 |
| 20260509124133 | 72 | 229 | 0.9 | 4.3 | 0.00 | 0.00 | 0.00 | 97 | 1010.1 |
| 20260509123156 | 71 | 246 | 0.9 | 3.5 | 0.00 | 0.00 | 0.00 | 97 | 1010.0 |
| 20260509122204 | 71 | 210 | 1.7 | 2.6 | 0.00 | 0.00 | 0.00 | 97 | 1009.9 |
| 20260509121143 | 71 | 246 | 2.6 | 5.2 | 0.00 | 0.00 | 0.00 | 97 | 1009.6 |
| 20260509120138 | 71 | 197 | 0.0 | 3.5 | 0.00 | 0.00 | 0.00 | 97 | 1009.5 |
| 20260509115218 | 71 | 186 | 0.9 | 4.3 | 0.00 | 0.00 | 0.00 | 97 | 1009.5 |
| 20260509114138 | 71 | 182 | 1.7 | 4.3 | 0.00 | 0.00 | 0.00 | 97 | 1009.5 |
| 20260509113219 | 71 | 171 | 1.7 | 7.0 | 0.00 | 0.00 | 0.00 | 97 | 1009.2 |
| 20260509112152 | 71 | 161 | 3.5 | 5.2 | 0.00 | 0.00 | 0.00 | 97 | 1009.1 |
| 20260509111230 | 71 | 244 | 1.7 | 7.8 | 0.00 | 0.00 | 0.00 | 97 | 1008.8 |
| 20260509110128 | 71 | 170 | 3.5 | 7.8 | 0.00 | 0.00 | 0.00 | 97 | 1008.2 |
| 20260509105205 | 71 | 211 | 2.6 | 5.2 | 0.00 | 0.00 | 0.00 | 97 | 1008.4 |
| 20260509104212 | 71 | 206 | 1.7 | 8.7 | 0.00 | 0.00 | 0.00 | 96 | 1008.4 |
| 20260509103145 | 71 | 199 | 3.5 | 7.8 | 0.00 | 0.00 | 0.00 | 97 | 1008.4 |
| 20260509102214 | 71 | 232 | 2.6 | 6.1 | 0.00 | 0.00 | 0.00 | 97 | 1008.7 |
| 20260509101148 | 71 | 166 | 2.6 | 5.2 | 0.00 | 0.00 | 0.00 | 97 | 1008.8 |
| 20260509095206 | 70 | 202 | 2.6 | 6.1 | 0.00 | 0.00 | 0.00 | 96 | 1009.1 |
| 20260509092149 | 70 | 180 | 1.7 | 5.2 | 0.00 | 0.00 | 0.00 | 96 | 1009.2 |
| 20260509091123 | 70 | 180 | 1.7 | 3.5 | 0.00 | 0.00 | 0.00 | 95 | 1009.0 |
| 20260509090204 | 70 | 185 | 1.7 | 4.3 | 0.00 | 0.00 | 0.00 | 95 | 1008.9 |
| 20260509085212 | 70 | 217 | 2.6 | 6.1 | 0.00 | 0.00 | 0.00 | 95 | 1008.9 |
| 20260509084139 | 71 | 151 | 2.6 | 5.2 | 0.00 | 0.00 | 0.00 | 94 | 1009.1 |
| 20260509083219 | 71 | 208 | 1.7 | 4.3 | 0.00 | 0.00 | 0.00 | 94 | 1009.4 |
| 20260509082222 | 71 | 190 | 2.6 | 5.2 | 0.00 | 0.00 | 0.00 | 94 | 1009.6 |
| 20260509081155 | 71 | 179 | 2.6 | 5.2 | 0.00 | 0.00 | 0.00 | 93 | 1009.8 |
| 20260509080904 | 71 | 175 | 1.7 | 4.3 | 0.00 | 0.00 | 0.00 | 93 | 1009.8 |
| 20260509080220 | 71 | 355 | 0.9 | 2.6 | 0.00 | 0.00 | 0.00 | 93 | 1009.8 |
| 20260509075152 | 71 | 360 | 0.0 | 0.9 | 0.00 | 0.00 | 0.00 | 93 | 1010.2 |
| 20260509074202 | 71 | 360 | 0.0 | 1.7 | 0.00 | 0.00 | 0.00 | 93 | 1010.4 |
| 20260509073208 | 71 | 360 | 0.9 | 1.7 | 0.00 | 0.00 | 0.00 | 93 | 1010.1 |
| 20260509072145 | 71 | 360 | 0.0 | 1.7 | 0.00 | 0.00 | 0.00 | 93 | 1010.2 |
| 20260509071124 | 71 | 360 | 0.0 | 2.6 | 0.00 | 0.00 | 0.00 | 92 | 1010.2 |
| 20260509070146 | 71 | 42 | 0.9 | 4.3 | 0.00 | 0.00 | 0.00 | 92 | 1010.1 |
| 20260509065142 | 71 | 355 | 0.9 | 4.3 | 0.00 | 0.00 | 0.00 | 92 | 1010.0 |
| 20260509064131 | 71 | 355 | 1.7 | 3.5 | 0.00 | 0.00 | 0.00 | 91 | 1009.3 |
| 20260509063139 | 71 | 53 | 0.9 | 2.6 | 0.00 | 0.00 | 0.00 | 91 | 1010.1 |
| 20260509062127 | 72 | 58 | 1.7 | 6.1 | 0.00 | 0.00 | 0.00 | 90 | 1010.0 |
| 20260509061204 | 72 | 145 | 2.6 | 5.2 | 0.00 | 0.00 | 0.00 | 89 | 1010.1 |
| 20260509060132 | 72 | 126 | 0.9 | 2.6 | 0.00 | 0.00 | 0.00 | 88 | 1010.7 |
| 20260509055138 | 72 | 81 | 0.0 | 1.7 | 0.00 | 0.00 | 0.00 | 88 | 1010.8 |
| 20260509054126 | 72 | 81 | 0.0 | 0.9 | 0.00 | 0.00 | 0.00 | 88 | 1011.0 |
| 20260509053124 | 72 | 81 | 0.0 | 1.7 | 0.00 | 0.00 | 0.00 | 88 | 1011.1 |
| 20260509052153 | 72 | 169 | 0.0 | 2.6 | 0.00 | 0.00 | 0.00 | 88 | 1010.8 |
| 20260509051148 | 72 | 326 | 0.9 | 2.6 | 0.00 | 0.00 | 0.00 | 88 | 1010.8 |
| 20260509050912 | 73 | 325 | 0.9 | 1.7 | 0.00 | 0.00 | 0.00 | 88 | 1010.7 |
| 20260509050130 | 73 | 324 | 0.9 | 1.7 | 0.00 | 0.00 | 0.00 | 88 | 1010.6 |
| 20260509045222 | 73 | 227 | 0.9 | 3.5 | 0.00 | 0.00 | 0.00 | 87 | 1010.4 |
| 20260509044206 | 73 | 355 | 0.9 | 4.3 | 0.00 | 0.00 | 0.00 | 87 | 1010.1 |
| 20260509043238 | 73 | 143 | 0.9 | 3.5 | 0.00 | 0.00 | 0.00 | 87 | 1010.2 |
| 20260509042147 | 73 | 144 | 0.9 | 1.7 | 0.00 | 0.00 | 0.00 | 86 | 1010.1 |
| 20260509041150 | 73 | 121 | 0.9 | 1.7 | 0.00 | 0.00 | 0.00 | 86 | 1010.0 |
| 20260509035149 | 73 | 179 | 0.9 | 3.5 | 0.00 | 0.00 | 0.00 | 86 | 1009.6 |
| 20260509034211 | 73 | 170 | 0.9 | 2.6 | 0.00 | 0.00 | 0.00 | 85 | 1009.8 |
| 20260509033207 | 73 | 175 | 0.9 | 3.5 | 0.00 | 0.00 | 0.00 | 85 | 1009.9 |
| 20260509032239 | 73 | 158 | 0.9 | 4.3 | 0.00 | 0.00 | 0.00 | 84 | 1009.8 |
| 20260509031150 | 73 | 120 | 0.0 | 3.5 | 0.00 | 0.00 | 0.00 | 84 | 1009.6 |
| 20260509030230 | 74 | 185 | 0.9 | 5.2 | 0.00 | 0.00 | 0.00 | 83 | 1009.6 |
| 20260509025136 | 74 | 119 | 1.7 | 4.3 | 0.00 | 0.00 | 0.00 | 83 | 1009.2 |
| 20260509024201 | 74 | 148 | 0.9 | 3.5 | 0.00 | 0.00 | 0.00 | 82 | 1009.1 |
| 20260509023138 | 74 | 115 | 0.0 | 1.7 | 0.00 | 0.00 | 0.00 | 82 | 1009.0 |
| 20260509022148 | 74 | 115 | 0.0 | 2.6 | 0.00 | 0.00 | 0.00 | 82 | 1008.9 |
| 20260509021214 | 74 | 163 | 0.0 | 0.0 | 0.00 | 0.00 | 0.00 | 81 | 1008.7 |
| 20260509020930 | 74 | 165 | 0.0 | 0.0 | 0.00 | 0.00 | 0.00 | 81 | 1008.7 |
| 20260509020229 | 74 | 162 | 0.0 | 0.0 | 0.00 | 0.00 | 0.00 | 81 | 1008.8 |
| 20260509015219 | 74 | 204 | 0.0 | 3.5 | 0.00 | 0.00 | 0.00 | 80 | 1008.6 |
| 20260509014138 | 75 | 96 | 0.0 | 2.6 | 0.00 | 0.00 | 0.00 | 80 | 1008.4 |
| 20260509013217 | 75 | 67 | 0.0 | 2.6 | 0.00 | 0.00 | 0.00 | 79 | 1008.3 |
| 20260509011149 | 75 | 163 | 0.9 | 6.1 | 0.00 | 0.00 | 0.00 | 78 | 1008.1 |
| 20260509010220 | 75 | 121 | 1.7 | 6.1 | 0.00 | 0.00 | 0.00 | 77 | 1008.0 |
| 20260509005137 | 76 | 171 | 0.9 | 6.1 | 0.00 | 0.00 | 0.00 | 77 | 1008.0 |
| 20260509004218 | 76 | 192 | 1.7 | 5.2 | 0.00 | 0.00 | 0.00 | 76 | 1008.1 |
| 20260509003158 | 76 | 144 | 1.7 | 3.5 | 0.00 | 0.00 | 0.00 | 75 | 1008.0 |
| 20260509002219 | 77 | 125 | 1.7 | 3.5 | 0.00 | 0.00 | 0.00 | 74 | 1008.0 |
| 20260509001139 | 78 | 192 | 1.7 | 6.1 | 0.00 | 0.00 | 0.00 | 73 | 1007.8 |
| 20260509000148 | 78 | 174 | 2.6 | 6.1 | 0.00 | 0.00 | 0.00 | 73 | 1007.8 |
| 20260508235226 | 78 | 182 | 2.6 | 7.8 | 0.00 | 0.00 | 0.00 | 71 | 1007.8 |
| 20260508234241 | 78 | 117 | 2.6 | 7.0 | 0.00 | 0.00 | 0.00 | 71 | 1007.6 |
| 20260508233155 | 79 | 140 | 3.5 | 10.4 | 0.00 | 0.00 | 0.00 | 69 | 1007.9 |
| 20260508232148 | 79 | 145 | 2.6 | 7.8 | 0.00 | 0.00 | 0.00 | 69 | 1008.0 |
| 20260508231234 | 79 | 142 | 4.3 | 8.7 | 0.00 | 0.00 | 0.00 | 68 | 1008.1 |
| 20260508230915 | 79 | 296 | 5.2 | 8.7 | 0.00 | 0.00 | 0.00 | 68 | 1008.2 |
| 20260508230214 | 79 | 171 | 1.7 | 6.1 | 0.00 | 0.00 | 0.00 | 68 | 1008.3 |
| 20260508225145 | 78 | 98 | 1.7 | 4.3 | 0.00 | 0.00 | 0.00 | 69 | 1008.8 |
| 20260508224211 | 78 | 111 | 1.7 | 6.1 | 0.00 | 0.00 | 0.00 | 68 | 1009.2 |
| 20260508223132 | 79 | 138 | 1.7 | 5.2 | 0.00 | 0.00 | 0.00 | 67 | 1008.9 |
| 20260508222204 | 80 | 216 | 1.7 | 4.3 | 0.00 | 0.00 | 0.00 | 65 | 1009.2 |
| 20260508221135 | 80 | 110 | 2.6 | 5.2 | 0.00 | 0.00 | 0.00 | 64 | 1008.8 |
| 20260508220231 | 80 | 143 | 1.7 | 3.5 | 0.00 | 0.00 | 0.00 | 64 | 1009.0 |
| 20260508215244 | 80 | 142 | 0.9 | 2.6 | 0.00 | 0.00 | 0.00 | 64 | 1009.1 |
| 20260508213157 | 80 | 205 | 1.7 | 6.1 | 0.00 | 0.00 | 0.00 | 62 | 1009.2 |
| 20260508212208 | 81 | 184 | 1.7 | 6.1 | 0.00 | 0.00 | 0.00 | 60 | 1009.1 |
| 20260508211128 | 82 | 161 | 1.7 | 4.3 | 0.00 | 0.00 | 0.00 | 61 | 1009.1 |
| 20260508210222 | 81 | 200 | 1.7 | 4.3 | 0.00 | 0.00 | 0.00 | 62 | 1009.1 |
| 20260508204150 | 82 | 341 | 0.9 | 7.0 | 0.00 | 0.00 | 0.00 | 61 | 1009.3 |
| 20260508203128 | 82 | 117 | 0.0 | 4.3 | 0.00 | 0.00 | 0.00 | 63 | 1008.9 |